Regional Weather Roundup
Issued by NWS

Home | Current Version | Previous Version | Text Only | Print | Product List | Glossary Off
Versions: 1 2 3 4 5 6 7 8 9 10 11 12 13 14 15 16 17 18 19 20 21 22 23 24 25 26 27 28 29 30 31 32 33 34 35 36 37 38 39 40 41 42 43 44 45 46 47 48 49 50

000
ASUS43 KLMK 242302
RWRKY
KENTUCKY REGIONAL WEATHER ROUNDUP
NATIONAL WEATHER SERVICE LOUISVILLE KY
600 PM EST WED DEC 24 2014

NOTE "FAIR" INDICATES FEW OR NO CLOUDS BELOW 12,000 FEET
WITH NO SIGNIFICANT WEATHER AND/OR OBSTRUCTIONS TO VISIBILITY.

KYZ001>023-026-027-061>063-070>075-250000-
WESTERN AND SOUTH CENTRAL KENTUCKY

CITY           SKY/WX    TMP DP  RH WIND       PRES   REMARKS
PADUCAH        CLOUDY    41  36  82 W13       29.77R
HENDERSON      CLOUDY    39  34  81 W9        29.73R WCI  33
OWENSBORO      CLOUDY    42  39  89 W14G20    29.72R
HOPKINSVILLE   MIX PCPN  43  39  85 W16       29.76R
BOWLING GREEN  CLOUDY    47  38  71 W13       29.73R
GLASGOW        NOT AVBL
$$

KYZ024-025-028>034-038-045-046-053-250000-
NORTH CENTRAL KENTUCKY

CITY           SKY/WX    TMP DP  RH WIND       PRES   REMARKS
LOUISVILLE/SDF CLOUDY    44  38  79 W17G23    29.66R
LOUISVILLE/LOU CLOUDY    44  38  79 W8        29.66R
FORT KNOX      CLOUDY    43  37  81 SW12      29.66R
$$

KYZ035>037-039>044-047>052-055>060-089>105-250000-
NORTHEAST KENTUCKY

CITY           SKY/WX    TMP DP  RH WIND       PRES   REMARKS
LEXINGTON      CLOUDY    42  39  89 W15G24    29.63R
COVINGTON      CLOUDY    41  35  79 W18G25    29.56R
FRANKFORT      CLOUDY    42  38  85 W9G20     29.62R
$$

KYZ054-064>069-076>088-106>120-250000-
SOUTHEAST KENTUCKY

CITY           SKY/WX    TMP DP  RH WIND       PRES   REMARKS
JACKSON        LGT RAIN  46  41  82 SW8G18    29.61R
LONDON         LGT RAIN  45  38  76 SW15G22   29.67R
SOMERSET       NOT AVBL
MIDDLESBORO    NOT AVBL
MONTICELLO     CLOUDY    44  41  89 W12       29.74R
$$




USA.gov is the U.S. government's official web portal to all federal, state and local government web resources and services.